Weather History for Ellington Field, TX

Change the Weather History Date:

Wednesday, July 10, 2013

  Actual Average Record
Temperature  
Mean Temperature 87 °F -  
Max Temperature 96 °F 91 °F 100 °F (1998)
Min Temperature 78 °F 73 °F 73 °F (1999)
Cooling Degree Days 22    
Growing Degree Days 37 (Base 50)    
Moisture  
Dew Point 73 °F    
Average Humidity 64    
Maximum Humidity 83    
Minimum Humidity 39    
Precipitation  
Precipitation 0.00 in - - ()
Sea Level Pressure  
Sea Level Pressure 30.05 in    
Wind  
Wind Speed 3 mph (South)    
Max Wind Speed 12 mph    
Max Gust Speed 16 mph    
Visibility 10 miles    
Events      
Averages and records for this station are not official NWS values.
T = Trace of Precipitation, MM = Missing Value Source: NWS Daily Summary

Daily Weather History Graph

Daily Weather History Graph

Search for Another Location

Airport:

Trip Planner

Search our weather history database for the weather conditions in past years. The results will help you decide how hot, cold, wet, or windy it might be!

Date:

Astronomy

Jul. 10, 2013 Rise Set
Actual Time 6:28 AM CDT 8:23 PM CDT
Civil Twilight 6:01 AM CDT 8:50 PM CDT
Nautical Twilight 5:28 AM CDT 9:23 PM CDT
Astronomical Twilight 4:54 AM CDT 9:57 PM CDT
Moon 8:36 AM CDT (7/10) 9:50 PM CDT (7/10)
Length of Visible Light 14h 49m
Length of Day
13h 55m
Waxing Crescent, 5% of the Moon is Illuminated
Jul 10
Waxing Crescent
Jul 15
First Quarter
Jul 22
Full
Jul 29
Last Quarter
Aug 6
New

Hourly Weather History & Observations

Time (CDT) Temp. Heat Index Dew Point Humidity Pressure Visibility Wind Dir Wind Speed Gust Speed Precip Events Conditions
12:50 AM 82.4 °F 88.2 °F 73.4 °F 74% 30.10 in 10.0 mi Calm Calm - N/A   Scattered Clouds
1:50 AM 80.6 °F 85.4 °F 73.4 °F 79% 30.10 in 10.0 mi Calm Calm - N/A   Scattered Clouds
2:50 AM 80.6 °F 85.4 °F 73.4 °F 79% 30.09 in 10.0 mi Calm Calm - N/A   Partly Cloudy
4:50 AM 78.8 °F - 73.4 °F 83% 30.09 in 10.0 mi Calm Calm - N/A   Partly Cloudy
6:50 AM 78.8 °F - 73.4 °F 83% 30.09 in 10.0 mi Calm Calm - N/A   Partly Cloudy
7:50 AM 86.0 °F 99.3 °F 78.8 °F 79% 30.10 in 10.0 mi Calm Calm - N/A   Partly Cloudy
8:50 AM 86.0 °F 95.1 °F 75.2 °F 70% 30.11 in 10.0 mi WSW 2.3 mph - N/A   Partly Cloudy
9:50 AM 87.8 °F 97.6 °F 75.2 °F 66% 30.10 in 10.0 mi South 3.5 mph - N/A   Scattered Clouds
10:50 AM 89.6 °F 99.8 °F 75.2 °F 62% 30.10 in 10.0 mi WSW 8.1 mph - N/A   Mostly Cloudy
11:50 AM 91.4 °F 100.1 °F 73.4 °F 55% 30.10 in 10.0 mi SSW 3.5 mph - N/A   Scattered Clouds
12:50 PM 95.0 °F 101.3 °F 69.8 °F 44% 30.08 in 10.0 mi ESE 6.9 mph - N/A   Mostly Cloudy
2:50 PM 96.8 °F 105.1 °F 71.6 °F 44% 30.04 in 10.0 mi ESE 10.4 mph - N/A   Mostly Cloudy
3:50 PM 96.8 °F 107.3 °F 73.4 °F 47% 30.03 in 10.0 mi ESE 11.5 mph 16.1 mph N/A   Mostly Cloudy
4:50 PM 96.8 °F 105.1 °F 71.6 °F 44% 30.01 in 10.0 mi SSE 11.5 mph - N/A   Scattered Clouds
5:50 PM 95.0 °F 98.5 °F 66.2 °F 39% 29.98 in 10.0 mi SSE 11.5 mph - N/A   Scattered Clouds
6:50 PM 91.4 °F 95.4 °F 68.0 °F 46% 29.98 in 10.0 mi South 11.5 mph - N/A   Scattered Clouds
7:50 PM 91.4 °F 95.4 °F 68.0 °F 46% 29.98 in 10.0 mi SSE 9.2 mph - N/A   Scattered Clouds
8:50 PM 86.0 °F 91.8 °F 71.6 °F 62% 29.99 in 10.0 mi South 5.8 mph - N/A   Partly Cloudy
9:50 PM 84.2 °F 92.3 °F 75.2 °F 74% 30.00 in 10.0 mi South 5.8 mph - N/A   Clear
10:50 PM 82.4 °F 89.5 °F 75.2 °F 79% 30.02 in 10.0 mi South 5.8 mph - N/A   Clear
11:50 PM 80.6 °F 85.4 °F 73.4 °F 79% 30.00 in 10.0 mi South 5.8 mph - N/A   Partly Cloudy